Location: Unspecified
(47.3532°N, 122.5883°W)
Time: 12:17:05
(UTC-08:00)

GENESIS II - Visible Passes

Search period start: 17 January 2018 00:00
Search period end: 27 January 2018 00:00
Orbit: 512 x 521 km, 64.5° (Epoch: 16 January)

Date Brightness Start Highest point End Pass type
(mag) Time Alt. Az. Time Alt. Az. Time Alt. Az.
17 Jan 6.0 18:14:20 10° W 18:17:43 27° NW 18:21:00 11° NNE visible
18 Jan 6.0 17:58:54 10° W 18:02:16 26° NW 18:05:40 10° NNE visible
19 Jan 6.0 17:43:28 10° W 17:46:49 26° NW 17:50:11 10° NNE visible
20 Jan 6.0 17:28:02 10° W 17:31:22 25° NW 17:34:42 10° NNE visible
